ASA585 PAPG-PAJN

Flight info

Callsign ASA585
Flight time 0h 27m
Altitude 16000
Route SSR
Aircraft B737/M-SDE2E3FGHIRWXY/LB1

Departure

Time 2026-04-13 07:31
Airport Petersburg James A Johnson Airport (PAPG)

Arrival

Time 2026-04-13 07:59
Airport Juneau International Airport (PAJN)
Time Latitude Longitude Altitude Speed Heading
2026-04-13 07:19 56.80563 -132.93459 121 ft 0 kts 72°
2026-04-13 07:23 56.80559 -132.93444 117 ft 1 kts 151°
2026-04-13 07:23 56.80539 -132.93434 117 ft 5 kts 163°
2026-04-13 07:24 56.80507 -132.93417 119 ft 5 kts 163°
2026-04-13 07:24 56.80468 -132.93392 121 ft 7 kts 161°
2026-04-13 07:24 56.80418 -132.93389 120 ft 8 kts 205°
2026-04-13 07:24 56.80373 -132.93485 118 ft 13 kts 249°
2026-04-13 07:25 56.80342 -132.93639 118 ft 13 kts 250°
2026-04-13 07:25 56.80312 -132.93790 119 ft 12 kts 251°
2026-04-13 07:25 56.80284 -132.93938 119 ft 12 kts 251°
2026-04-13 07:25 56.80257 -132.94080 118 ft 12 kts 251°
2026-04-13 07:26 56.80230 -132.94220 117 ft 12 kts 251°
2026-04-13 07:26 56.80204 -132.94356 121 ft 11 kts 250°
2026-04-13 07:26 56.80177 -132.94496 121 ft 14 kts 250°
2026-04-13 07:26 56.80145 -132.94664 120 ft 14 kts 250°
2026-04-13 07:27 56.80112 -132.94830 117 ft 14 kts 250°
2026-04-13 07:27 56.80083 -132.94989 120 ft 13 kts 251°
2026-04-13 07:27 56.80055 -132.95142 119 ft 13 kts 251°
2026-04-13 07:27 56.80026 -132.95292 120 ft 12 kts 251°
2026-04-13 07:28 56.79998 -132.95437 121 ft 12 kts 251°
2026-04-13 07:28 56.79971 -132.95579 121 ft 12 kts 251°
2026-04-13 07:28 56.79945 -132.95719 123 ft 12 kts 251°
2026-04-13 07:28 56.79914 -132.95882 119 ft 14 kts 251°
2026-04-13 07:29 56.79885 -132.96035 119 ft 11 kts 232°
2026-04-13 07:29 56.79874 -132.96018 120 ft 3 kts 61°
2026-04-13 07:29 56.79884 -132.95991 118 ft 3 kts 64°
2026-04-13 07:29 56.79886 -132.95981 122 ft 0 kts 71°
2026-04-13 07:30 56.79930 -132.95745 123 ft 59 kts 71°
2026-04-13 07:31 56.80166 -132.94526 113 ft 141 kts 70°
2026-04-13 07:31 56.80562 -132.92541 415 ft 180 kts 70°
2026-04-13 07:31 56.80960 -132.90383 1538 ft 178 kts 75°
2026-04-13 07:31 56.81452 -132.88329 2521 ft 197 kts 46°
2026-04-13 07:32 56.82810 -132.87195 2874 ft 237 kts
2026-04-13 07:32 56.84497 -132.87960 3308 ft 265 kts 322°
2026-04-13 07:32 56.85650 -132.90502 4461 ft 262 kts 294°
2026-04-13 07:32 56.86437 -132.93495 5672 ft 262 kts 290°
2026-04-13 07:33 56.87185 -132.96557 6808 ft 266 kts 290°
2026-04-13 07:33 56.87947 -132.99664 7850 ft 270 kts 290°
2026-04-13 07:33 56.88729 -133.02820 8917 ft 275 kts 290°
2026-04-13 07:34 56.90538 -133.09198 10745 ft 300 kts 297°
2026-04-13 07:34 56.91765 -133.12537 11009 ft 332 kts 302°
2026-04-13 07:34 56.93253 -133.15992 11342 ft 357 kts 307°
2026-04-13 07:34 56.94944 -133.19434 12188 ft 367 kts 310°
2026-04-13 07:35 56.96750 -133.22783 13228 ft 372 kts 312°
2026-04-13 07:35 56.98643 -133.26063 14171 ft 377 kts 313°
2026-04-13 07:35 57.00597 -133.29335 14975 ft 382 kts 314°
2026-04-13 07:35 57.02567 -133.32575 15751 ft 388 kts 314°
2026-04-13 07:36 57.04604 -133.35885 16593 ft 392 kts 314°
2026-04-13 07:36 57.06668 -133.39218 17417 ft 397 kts 314°
2026-04-13 07:36 57.08760 -133.42589 18227 ft 402 kts 314°
2026-04-13 07:36 57.10876 -133.46001 19007 ft 406 kts 314°
2026-04-13 07:37 57.13002 -133.49432 19495 ft 406 kts 314°
2026-04-13 07:37 57.15137 -133.52882 19736 ft 413 kts 314°
2026-04-13 07:37 57.17338 -133.56457 19728 ft 429 kts 314°
2026-04-13 07:37 57.19607 -133.60149 19762 ft 441 kts 314°
2026-04-13 07:38 57.21926 -133.63924 19731 ft 446 kts 315°
2026-04-13 07:38 57.24244 -133.67694 19716 ft 442 kts 315°
2026-04-13 07:38 57.26541 -133.71432 19712 ft 439 kts 315°
2026-04-13 07:38 57.28828 -133.75165 19705 ft 438 kts 315°
2026-04-13 07:39 57.31111 -133.78900 19710 ft 438 kts 315°
2026-04-13 07:39 57.33399 -133.82653 19711 ft 439 kts 315°
2026-04-13 07:39 57.35684 -133.86410 19711 ft 440 kts 314°
2026-04-13 07:39 57.37942 -133.90130 19703 ft 441 kts 314°
2026-04-13 07:40 57.40233 -133.93910 19708 ft 441 kts 314°
2026-04-13 07:40 57.42527 -133.97699 19738 ft 442 kts 315°
2026-04-13 07:40 57.44828 -134.01501 19713 ft 443 kts 315°
2026-04-13 07:40 57.47133 -134.05325 19708 ft 444 kts 315°
2026-04-13 07:41 57.49430 -134.09143 19705 ft 444 kts 315°
2026-04-13 07:41 57.51737 -134.12980 19705 ft 444 kts 315°
2026-04-13 07:41 57.54038 -134.16817 19691 ft 444 kts 315°
2026-04-13 07:41 57.56337 -134.20662 19718 ft 443 kts 315°
2026-04-13 07:42 57.58637 -134.24509 19695 ft 443 kts 315°
2026-04-13 07:42 57.60925 -134.28342 19697 ft 443 kts 315°
2026-04-13 07:42 57.63217 -134.32190 19691 ft 443 kts 315°
2026-04-13 07:42 57.65514 -134.36051 19716 ft 445 kts 315°
2026-04-13 07:43 57.67821 -134.39940 19698 ft 448 kts 315°
2026-04-13 07:43 57.70130 -134.43836 19659 ft 443 kts 315°
2026-04-13 07:43 57.72406 -134.47683 18917 ft 439 kts 315°
2026-04-13 07:43 57.74652 -134.51485 18191 ft 431 kts 315°
2026-04-13 07:44 57.76860 -134.55230 17305 ft 425 kts 315°
2026-04-13 07:44 57.79021 -134.58898 16851 ft 411 kts 315°
2026-04-13 07:44 57.81096 -134.62426 16031 ft 406 kts 315°
2026-04-13 07:44 57.83172 -134.65968 15243 ft 402 kts 315°
2026-04-13 07:45 57.85232 -134.69484 14485 ft 398 kts 315°
2026-04-13 07:45 57.87267 -134.72966 13702 ft 394 kts 315°
2026-04-13 07:45 57.89283 -134.76425 12873 ft 390 kts 315°
2026-04-13 07:45 57.91276 -134.79849 12098 ft 384 kts 315°
2026-04-13 07:46 57.93231 -134.83210 11354 ft 379 kts 315°
2026-04-13 07:46 57.95163 -134.86537 10742 ft 371 kts 315°
2026-04-13 07:46 57.97011 -134.89717 10640 ft 350 kts 315°
2026-04-13 07:46 57.98766 -134.92742 10470 ft 333 kts 314°
2026-04-13 07:47 58.00417 -134.95653 10337 ft 317 kts 314°
2026-04-13 07:47 58.02004 -134.98402 10178 ft 303 kts 314°
2026-04-13 07:47 58.03511 -135.00991 10051 ft 291 kts 314°
2026-04-13 07:47 58.04979 -135.03520 9843 ft 282 kts 314°
2026-04-13 07:48 58.06409 -135.05999 9561 ft 277 kts 314°
2026-04-13 07:48 58.07821 -135.08456 9229 ft 274 kts 314°
2026-04-13 07:48 58.09214 -135.10881 8884 ft 270 kts 314°
2026-04-13 07:48 58.10587 -135.13274 8568 ft 266 kts 314°
2026-04-13 07:49 58.11938 -135.15631 8248 ft 263 kts 313°
2026-04-13 07:49 58.13279 -135.17975 7898 ft 261 kts 313°
2026-04-13 07:49 58.14631 -135.20236 7584 ft 260 kts 322°
2026-04-13 07:49 58.16331 -135.21394 7260 ft 265 kts 354°
2026-04-13 07:50 58.18130 -135.20763 6941 ft 267 kts 25°
2026-04-13 07:50 58.19514 -135.18496 6588 ft 263 kts 57°
2026-04-13 07:50 58.20328 -135.15478 6285 ft 252 kts 68°
2026-04-13 07:50 58.21016 -135.12462 5960 ft 246 kts 68°
2026-04-13 07:51 58.21685 -135.09528 5648 ft 238 kts 68°
2026-04-13 07:51 58.22388 -135.06734 5329 ft 232 kts 54°
2026-04-13 07:51 58.23623 -135.04957 5097 ft 219 kts 18°
2026-04-13 07:51 58.24574 -135.04448 4943 ft 210 kts
2026-04-13 07:52 58.26443 -135.03841 4736 ft 197 kts
2026-04-13 07:52 58.27323 -135.03571 4656 ft 190 kts
2026-04-13 07:52 58.28610 -135.03170 4531 ft 185 kts
2026-04-13 07:52 58.29866 -135.02770 4467 ft 183 kts
2026-04-13 07:53 58.31130 -135.02363 4400 ft 185 kts
2026-04-13 07:53 58.32405 -135.01948 4319 ft 186 kts
2026-04-13 07:53 58.33679 -135.01531 4213 ft 188 kts
2026-04-13 07:53 58.34948 -135.00826 3987 ft 194 kts 35°
2026-04-13 07:54 58.35670 -134.98797 3817 ft 184 kts 84°
2026-04-13 07:54 58.35747 -134.96394 3656 ft 182 kts 94°
2026-04-13 07:54 58.35743 -134.94050 3412 ft 171 kts 94°
2026-04-13 07:54 58.35738 -134.91808 3260 ft 180 kts 95°
2026-04-13 07:55 58.35735 -134.89401 3251 ft 179 kts 94°
2026-04-13 07:55 58.35739 -134.87115 3100 ft 171 kts 94°
2026-04-13 07:55 58.35743 -134.84893 2995 ft 166 kts 95°
2026-04-13 07:55 58.35746 -134.82668 2879 ft 167 kts 94°
2026-04-13 07:56 58.35751 -134.80484 2694 ft 166 kts 94°
2026-04-13 07:56 58.35756 -134.78309 2502 ft 163 kts 94°
2026-04-13 07:56 58.35762 -134.76169 2309 ft 158 kts 94°
2026-04-13 07:56 58.35768 -134.74201 2173 ft 141 kts 94°
2026-04-13 07:57 58.35773 -134.72389 1945 ft 133 kts 95°
2026-04-13 07:57 58.35776 -134.70628 1761 ft 134 kts 94°
2026-04-13 07:57 58.35777 -134.68821 1354 ft 135 kts 94°
2026-04-13 07:57 58.35775 -134.67057 1178 ft 134 kts 95°
2026-04-13 07:58 58.35788 -134.65264 1029 ft 138 kts 91°
2026-04-13 07:58 58.35821 -134.63460 841 ft 134 kts 94°
2026-04-13 07:58 58.35885 -134.61710 484 ft 131 kts 84°
2026-04-13 07:58 58.35830 -134.60011 101 ft 124 kts 103°
2026-04-13 07:59 58.35613 -134.58485 31 ft 103 kts 104°
2026-04-13 07:59 58.35486 -134.57535 34 ft 26 kts 105°
2026-04-13 07:59 58.35470 -134.57284 34 ft 12 kts 50°
2026-04-13 07:59 58.35531 -134.57283 32 ft 9 kts 336°
2026-04-13 08:00 58.35570 -134.57374 33 ft 9 kts 300°
2026-04-13 08:00 58.35589 -134.57482 33 ft 9 kts 285°
2026-04-13 08:00 58.35605 -134.57590 33 ft 8 kts 285°
2026-04-13 08:00 58.35620 -134.57694 32 ft 8 kts 284°
2026-04-13 08:01 58.35634 -134.57796 33 ft 8 kts 284°
2026-04-13 08:01 58.35648 -134.57895 33 ft 8 kts 284°
2026-04-13 08:01 58.35661 -134.57990 32 ft 7 kts 284°
2026-04-13 08:01 58.35674 -134.58083 33 ft 7 kts 284°
2026-04-13 08:02 58.35688 -134.58190 31 ft 9 kts 284°
2026-04-13 08:02 58.35715 -134.58295 33 ft 9 kts 328°
2026-04-13 08:02 58.35775 -134.58301 32 ft 9 kts 360°
2026-04-13 08:02 58.35820 -134.58301 33 ft 3 kts
2026-04-13 08:03 58.35827 -134.58301 33 ft 0 kts 359°